Greenville Downtown Airport Greenville US
ICAO: KGMU
IATA: GMU
Category: Medium
Scheduled Services: No

Elevation: 1048 ft
TransAlt. 18000 ft.

Airport Communications:
GREER APP/DEP:118.8
ASOS:127.075
CTAF:119.9
GND:121.25
TWR:119.9
UNICOM:122.95

KGMU Zoom In..

If you have problems with the map follow the link
https://www.worldairports.se/pages/airport.php?
ICAO=KGMU

Runways:

(A) RW 01 length 5393 ft width 100 ft
ILS 109.70 / hdg 6

(B) RW 10 length 4000 ft width 80 ft
---- / hdg 96

(C) RW 19 length 5393 ft width 100 ft
---- / hdg 186

(D) RW 28 length 4000 ft width 80 ft
---- / hdg 276

Location; KGMU
Day. 16 / Time. 01.53 Zulu
* Altimeter: 30.14
* Temperature: 11° c. 51.8°f.
* Wind from: 000° Speed 00 kn.
Dewpoint: 06° c.
Visibility: 10 Statute Miles.
Clouds: Clear (automated report).

KGMU 160153Z 00000KT 10SM CLR 11/06 A3014 RMK AO2 SLP209 T01110061


Wind - Calm.

 
 
jpsmedia worldairports.se 2019   terms of use